This is the latest recevied weather packets stored in our database for station/object KC9MWQ-13. If no packets are shown the sender has not sent any weather packets the latest 10 day(s).
| Time | Temp. | Humidity | Pressure | Rain* | Wind** | Luminosity | Snow |
|---|---|---|---|---|---|---|---|
| 1777218214 | 11.67° C | 89% | 1020 hPa | 0 mm | - | 230 W/m² | - |
| 1777217912 | 11.67° C | 89% | 1020.2 hPa | 0 mm | - | 228 W/m² | - |
| 1777217611 | 11.67° C | 90% | 1020.2 hPa | 0 mm | - | 245 W/m² | - |
| 1777217308 | 11.11° C | 89% | 1020 hPa | 0 mm | - | 231 W/m² | - |
| 1777217003 | 11.11° C | 90% | 1020.2 hPa | 0 mm | - | 246 W/m² | - |
| 1777216701 | 11.11° C | 89% | 1020 hPa | 0 mm | - | 255 W/m² | - |
| 1777216396 | 11.11° C | 90% | 1020.1 hPa | 0 mm | - | 262 W/m² | - |
| 1777216096 | 11.11° C | 90% | 1019.9 hPa | 0 mm | - | 242 W/m² | - |
| 1777215791 | 10.56° C | 90% | 1019.8 hPa | 0 mm | - | 244 W/m² | - |
| 1777215487 | 11.11° C | 91% | 1020 hPa | 0 mm | - | 229 W/m² | - |
| 1777215184 | 10.56° C | 91% | 1020 hPa | 0 mm | - | 211 W/m² | - |
| 1777214879 | 10.56° C | 92% | 1020 hPa | 0 mm | - | 183 W/m² | - |
| 1777214578 | 10.56° C | 92% | 1019.9 hPa | 0 mm | - | 179 W/m² | - |
| 1777214273 | 10.56° C | 92% | 1019.9 hPa | 0 mm | - | 157 W/m² | - |
| 1777213972 | 10.56° C | 93% | 1020 hPa | 0 mm | - | 141 W/m² | - |
| 1777213667 | 10.56° C | 93% | 1020 hPa | 0 mm | - | 125 W/m² | - |
| 1777213363 | 10.56° C | 93% | 1020 hPa | 0 mm | - | 118 W/m² | - |
| 1777213061 | 10.56° C | 93% | 1019.9 hPa | 0 mm | - | 137 W/m² | - |
| 1777212758 | 10.56° C | 93% | 1020 hPa | 0 mm | - | 149 W/m² | - |
| 1777212453 | 10.56° C | 93% | 1019.8 hPa | 0 mm | - | 133 W/m² | - |
| 1777212148 | 10.56° C | 93% | 1019.8 hPa | 0 mm | - | 131 W/m² | - |
| 1777211844 | 10.56° C | 92% | 1020 hPa | 0 mm | - | 124 W/m² | - |
| 1777211543 | 10° C | 93% | 1019.8 hPa | 0 mm | - | 127 W/m² | - |
| 1777211239 | 10° C | 93% | 1019.9 hPa | 0 mm | - | 129 W/m² | - |
| 1777210936 | 10° C | 93% | 1020.2 hPa | 0 mm | - | 113 W/m² | - |
* Rain latest hour (hover to see other rain measurements)
** Current wind speed in m/s (hover to see current wind gust speed)